Location: Bottenau
(48.5138°N, 8.0462°E)
Time: 05:42:09
(UTC+00:00)

Cosmos 2180 Rocket - Pass Details

Date: 18 April 2021
Orbit: 953 x 1005 km, 82.9° (Epoch: 09 May)

Event Time Altitude Azimuth Distance (km) Brightness Sun altitude
Exits shadow 20:23:19 10° 185° (S) 2,663 6.4 -17.9°
Maximum altitude 20:29:24 86° 98° (E) 968 4.4 -18.6°
Drops below altitude 10° 20:35:34 10° 10° (N) 2,694 7.3 -19.4°
Sets 20:38:04 0° 10° (N) 3,643 8.0 -19.7°
